Youngstown, OH

3:45 PM EDT on August 17, 2017 (GMT -0400)
Youngstown-Warren Regional

Weather History for KYNG - July, 2012

Change the Weather History Date:

Saturday, July 28, 2012

  Actual Average Record
Temperature  
Mean Temperature 71 °F 70 °F  
Max Temperature 77 °F 81 °F 100 °F (1941)
Min Temperature 64 °F 60 °F 49 °F (1985)
Degree Days  
Heating Degree Days 0 0  
Month to date heating degree days 0 8  
Since 1 June heating degree days 41 77  
Since 1 July heating degree days 0 8  
Cooling Degree Days 6 6  
Month to date cooling degree days 288 168  
Year to date cooling degree days 543 317  
Since 1 June cooling degree days 442 278  
Growing Degree Days 22 (Base 50)    
Moisture  
Dew Point 66 °F    
Average Humidity 85    
Maximum Humidity 100    
Minimum Humidity 69    
Precipitation  
Precipitation 0.96 in 0.14 in 1.84 in (1964)
Month to date precipitation 6.01 3.93  
Year to date precipitation 23.96 22.60  
Snow  
Snow 0.00 in 0.00 in - ()
Month to date snowfall T 0.0  
Since 1 June snowfall T 0.0  
Since 1 July snowfall T 0.0  
Snow Depth 0.00 in    
Sea Level Pressure  
Sea Level Pressure 29.96 in    
Wind  
Wind Speed 3 mph (NNW)    
Max Wind Speed 15 mph    
Max Gust Speed 20 mph    
Visibility 6 miles    
Events Fog , Rain , Thunderstorm    
T = Trace of Precipitation, MM = Missing Value Source: NWS Daily Summary

Daily Weather History Graph

Daily Weather History Graph

Search for Another Location

Airport or City:

Trip Planner

Search our weather history database for the weather conditions in past years. The results will help you decide how hot, cold, wet, or windy it might be!

Date:

Astronomy

Jul. 28, 2012 Rise Set
Actual Time 6:14 AM EDT 8:43 PM EDT
Civil Twilight 5:43 AM EDT 9:14 PM EDT
Nautical Twilight 5:04 AM EDT 9:53 PM EDT
Astronomical Twilight 4:20 AM EDT 10:36 PM EDT
Moon 4:46 PM EDT (7/28) 1:32 AM EDT (7/28)
Length of Visible Light 15h 31m
Length of Day
14h 28m
Waxing Gibbous, 75% of the Moon is Illuminated
Jul 28
Waxing Gibbous
Aug 1
Full
Aug 9
Last Quarter
Aug 17
New
Aug 24
First Quarter

Hourly Weather History & Observations

Time (EDT) Temp. Dew Point Humidity Pressure Visibility Wind Dir Wind Speed Gust Speed Precip Events Conditions
12:10 AM 66.2 °F 64.4 °F 94% 29.91 in 4.0 mi ENE 6.9 mph - 0.05 in Rain , Thunderstorm Light Thunderstorms and Rain
12:51 AM 66.9 °F 64.9 °F 93% 29.88 in 6.0 mi ESE 4.6 mph - 0.05 in Rain , Thunderstorm Light Thunderstorms and Rain
1:51 AM 66.9 °F 66.0 °F 97% 29.91 in 3.0 mi NNW 4.6 mph 19.6 mph 0.03 in Rain , Thunderstorm Thunderstorms and Rain
2:07 AM 66.2 °F 66.2 °F 100% 29.93 in 3.0 mi NW 5.8 mph - 0.04 in Rain Rain
2:12 AM 66.2 °F 66.2 °F 100% 29.93 in 4.0 mi Calm Calm - 0.04 in Rain , Thunderstorm Light Thunderstorms and Rain
2:51 AM 66.9 °F 66.0 °F 97% 29.91 in 5.0 mi Calm Calm - 0.06 in Rain , Thunderstorm Light Thunderstorms and Rain
3:51 AM 68.0 °F 66.0 °F 93% 29.87 in 7.0 mi ESE 6.9 mph - 0.01 in Rain , Thunderstorm Light Thunderstorms and Rain
4:51 AM 68.0 °F 66.0 °F 93% 29.88 in 5.0 mi SSE 6.9 mph - 0.02 in Rain , Thunderstorm Light Thunderstorms and Rain
5:03 AM 68.0 °F 66.2 °F 94% 29.91 in 5.0 mi South 6.9 mph - 0.00 in Rain Light Rain
5:51 AM 68.0 °F 66.0 °F 93% 29.89 in 5.0 mi Calm Calm - 0.00 in   Overcast
6:12 AM 68.0 °F 66.2 °F 94% 29.92 in 2.5 mi SSW 3.5 mph - N/A   Overcast
6:51 AM 68.0 °F 66.0 °F 93% 29.91 in 2.0 mi Calm Calm - N/A   Overcast
6:57 AM 68.0 °F 66.2 °F 94% 29.93 in 1.8 mi WNW 3.5 mph - N/A   Overcast
7:23 AM 68.0 °F 66.2 °F 94% 29.95 in 2.0 mi WNW 4.6 mph - N/A   Overcast
7:42 AM 68.0 °F 66.2 °F 94% 29.95 in 3.0 mi Calm Calm - N/A   Overcast
7:51 AM 68.0 °F 66.2 °F 94% 29.95 in 4.0 mi Calm Calm - N/A   Overcast
7:57 AM 68.0 °F 66.2 °F 94% 29.95 in 4.0 mi Calm Calm - N/A   Overcast
8:51 AM 69.1 °F 66.9 °F 93% 29.95 in 5.0 mi NNW 3.5 mph - 0.00 in   Overcast
9:23 AM 69.8 °F 66.2 °F 88% 29.96 in 9.0 mi Calm Calm - N/A   Mostly Cloudy
9:51 AM 70.0 °F 66.0 °F 87% 29.94 in 10.0 mi NNW 5.8 mph - N/A   Overcast
10:32 AM 71.6 °F 64.4 °F 78% 29.96 in 10.0 mi Calm Calm - N/A   Mostly Cloudy
10:51 AM 73.0 °F 66.0 °F 79% 29.95 in 10.0 mi Calm Calm - N/A   Mostly Cloudy
11:51 AM 73.0 °F 66.0 °F 79% 29.96 in 10.0 mi Calm Calm - N/A   Mostly Cloudy
12:15 PM 73.4 °F 66.2 °F 78% 29.97 in 10.0 mi Calm Calm - N/A   Mostly Cloudy
12:51 PM 75.9 °F 64.9 °F 69% 29.95 in 10.0 mi WNW 5.8 mph - N/A   Mostly Cloudy
1:08 PM 75.2 °F 66.2 °F 73% 29.97 in 10.0 mi WSW 3.5 mph - N/A Thunderstorm Thunderstorm
1:25 PM 71.6 °F 64.4 °F 78% 29.98 in 3.0 mi North 9.2 mph - 0.01 in Rain Heavy Rain
1:33 PM 68.0 °F 64.4 °F 88% 29.98 in 1.0 mi NNW 8.1 mph - 0.28 in Rain Heavy Rain
1:44 PM 66.2 °F 64.4 °F 94% 29.98 in 2.0 mi Calm Calm - 0.75 in Rain , Thunderstorm Thunderstorms and Rain
1:51 PM 69.1 °F 64.9 °F 87% 29.96 in 3.0 mi NE 3.5 mph - 0.78 in Rain Rain
2:20 PM 71.6 °F 66.2 °F 83% 29.99 in 10.0 mi NNW 4.6 mph - 0.03 in Rain , Thunderstorm Light Thunderstorms and Rain
2:38 PM 71.6 °F 66.2 °F 83% 29.99 in 10.0 mi North 6.9 mph - 0.03 in   Mostly Cloudy
2:51 PM 73.0 °F 66.0 °F 79% 29.97 in 10.0 mi NNE 5.8 mph - 0.03 in   Mostly Cloudy
3:51 PM 75.0 °F 64.9 °F 71% 29.98 in 10.0 mi NNE 5.8 mph - N/A   Mostly Cloudy
4:51 PM 73.0 °F 66.0 °F 79% 29.99 in 10.0 mi North 5.8 mph - 0.00 in Rain Light Rain
5:03 PM 71.6 °F 66.2 °F 83% 30.01 in 6.0 mi NW 5.8 mph - 0.01 in Rain , Thunderstorm Light Thunderstorms and Rain
5:51 PM 70.0 °F 66.0 °F 87% 30.00 in 6.0 mi NNW 3.5 mph - 0.03 in Rain , Thunderstorm Light Thunderstorms and Rain
6:26 PM 73.4 °F 66.2 °F 78% 30.02 in 10.0 mi North 4.6 mph - 0.00 in   Mostly Cloudy
6:51 PM 73.0 °F 66.0 °F 79% 30.00 in 10.0 mi NNW 5.8 mph - 0.00 in   Mostly Cloudy
7:51 PM 73.0 °F 64.9 °F 76% 30.01 in 10.0 mi North 6.9 mph - N/A   Mostly Cloudy
8:51 PM 69.1 °F 63.0 °F 81% 30.03 in 10.0 mi NNE 4.6 mph - N/A   Mostly Cloudy
9:51 PM 66.2 °F 62.6 °F 88% 30.06 in 10.0 mi Calm Calm - N/A   Scattered Clouds
10:51 PM 66.0 °F 63.0 °F 90% 30.06 in 10.0 mi Calm Calm - N/A   Scattered Clouds
11:51 PM 64.9 °F 63.0 °F 93% 30.06 in 6.0 mi NNW 3.5 mph - N/A Fog Shallow Fog